{"data":{"norad_id":57070,"epoch":"2026-09-20T04:13:36.940800Z","epoch_age_seconds":148906,"freshness":"FRESH","line1":"1 57070U 23088Y   26263.17612200  .00000014  00000+0  10031-4 0  9991","line2":"2 57070  43.0025  77.8479 0001310 250.0441 110.0269 15.27576053180243","mean_motion":15.27576053,"eccentricity":0.000131,"inclination_deg":43.0025,"raan_deg":77.8479,"arg_perigee_deg":250.0441,"mean_anomaly_deg":110.0269,"bstar":1.0031e-5,"rev_number":18024,"period_min":94.2669922831,"perigee_km":482.16209787619,"apogee_km":483.95973172987,"semimajor_km":6861.197914803,"source":"CELESTRAK","updated_at":"2026-09-21T09:00:33.552544Z"}}